Location: Miles
(41.4492°N, 81.6087°W)
Time: 15:40:59
(UTC+00:00)

Vanguard 1 Rocket - Pass Details

Date: 14 September 2024
Orbit: 650 x 4218 km, 34.3° (Epoch: 07 October)

Event Time Altitude Azimuth Distance (km) Brightness Sun altitude
Rises 16:21:01 0° 285° (WNW) 8,205 12.0 49.2°
Reaches altitude 10° 16:27:35 10° 277° (W) 7,365 11.9 49.7°
Maximum altitude 16:47:44 31° 227° (SW) 5,501 12.1 50.8°
Drops below altitude 10° 17:04:11 10° 174° (S) 5,942 12.4 51.4°
Sets 17:08:51 0° 163° (SSE) 6,485 12.3 51.5°
